Home   Weather   Key West   Past weeks

Flag for USA Past Weather in Key West, Florida, USA — Yesterday and Last 2 Weeks

79 °F


Feels Like: 82 °F
Forecast: 75 / 81 °F
Wind: 7 mph from North

Location: Key West International Airport

Current Time: Oct 22, 2016 at 1:20:56 AM

Latest Report: Oct 22, 2016 at 12:53 AM

Visibility: 10 mi

Pressure: 29.89 "Hg

Humidity: 77%

Dew Point: 71 °F

Location of Key WestLocation

Past Weather in Key West — Graph


Key West Temperature Yesterday

Maximum temperature yesterday: 84 °F (at 1:53 PM)
Minimum temperature yesterday: 77 °F (at 2:53 AM)
Average temperature yesterday: 81 °F

High & Low Weather Summary for the Past Weeks

High90 °F (Oct 9, 1:53 PM)100% (Oct 13, 2:53 AM)30.07 "Hg (Oct 13, 2:53 AM)
Low76 °F (Oct 13, 2:53 AM)51% (Oct 10, 1:53 AM)29.68 "Hg (Oct 7, 3:53 AM)
Average82 °F74%29.93 "Hg
* Reported Oct 6 11:53 PM — Oct 21 11:53 PM, Key West, Weather by CustomWeather, © 2016

Note: Actual official high and low records may vary slightly from our data, if they occured in-between our weather recording intervals... More about our weather records


Key West Weather History for the Previous 24 Hours

Scroll right to see more
Time TempWeatherWind HumidityBarometerVisibility
11:53 PM
Fri, Oct 21
79 °FClear.10 mph79%29.89 "Hg10 mi
10:53 PM79 °FClear.7 mph74%29.90 "Hg10 mi
9:53 PM79 °FClear.9 mph77%29.88 "Hg10 mi
8:53 PM80 °FClear.10 mph71%29.87 "Hg10 mi
7:53 PM80 °FClear.8 mph71%29.85 "Hg10 mi
6:53 PM80 °FSunny.12 mph71%29.84 "Hg10 mi
5:53 PM82 °FSunny.12 mph67%29.83 "Hg10 mi
4:53 PM84 °FSunny.13 mph63%29.83 "Hg10 mi
3:53 PM84 °FSunny.14 mph61%29.83 "Hg10 mi
2:53 PM84 °FSunny.14 mph63%29.83 "Hg10 mi
1:53 PM84 °FSunny.14 mph57%29.84 "Hg10 mi
12:53 PM83 °FSunny.14 mph57%29.86 "Hg10 mi
11:53 AM83 °FSunny.10 mph59%29.88 "Hg10 mi
10:53 AM83 °FSunny.12 mph59%29.88 "Hg10 mi
9:53 AM82 °FSunny.12 mph60%29.88 "Hg10 mi
8:53 AM81 °FSunny.7 mph60%29.86 "Hg10 mi
7:53 AM79 °FPassing clouds.9 mph69%29.85 "Hg10 mi
6:53 AM78 °FMostly cloudy.8 mph79%29.84 "Hg10 mi
5:53 AM79 °FPassing clouds.8 mph79%29.83 "Hg10 mi
4:53 AM78 °FClear.7 mph84%29.83 "Hg10 mi
3:53 AM78 °FPassing clouds.7 mph82%29.84 "Hg10 mi
2:53 AM77 °FClear.No wind85%29.85 "Hg10 mi
1:53 AM78 °FClear.3 mph82%29.87 "Hg10 mi
Weather by CustomWeather, © 2016

See weather overviewHow to use our weather pages